When you browse on this site, cookies collect data to enhance your experience and personalize the content and advertising you see.
Visit our Privacy Policy to learn more. By continuing to use the site, you agree to this use of cookies and data.
  • In Germany
  • List of Countries
  • For 7 days
  • Water Temperature
  • Satellite Maps
  • Weather Map
  • Weather Widgets
  • user-avatar
    Login

    Hourly Weather Berlin

    Today, 19 December, Wednesday

    Time Temperature Precipitation Wind Pressure Humidity
    00:00 -1°C° 0 mm 3 mps 763 mmHg 93%
    01:00 -1°C° 0 mm 3 mps 763 mmHg 92%
    02:00 -1°C° 0 mm 3 mps 763 mmHg 92%
    03:00 -2°C° 0 mm 4 mps 762 mmHg 92%
    04:00 -2°C° 0 mm 4 mps 762 mmHg 91%
    05:00 -2°C° 0 mm 4 mps 761 mmHg 90%
    06:00 -2°C° 0 mm 4 mps 761 mmHg 89%
    07:00 -2°C° 0 mm 5 mps 760 mmHg 87%
    08:00 -1°C° 0 mm 5 mps 760 mmHg 85%
    09:00 -1°C° 0 mm 5 mps 760 mmHg 82%
    10:00 0°C° 0 mm 5 mps 760 mmHg 79%
    11:00 0°C° 0 mm 4 mps 760 mmHg 76%
    12:00 +1°C° 0 mm 4 mps 759 mmHg 74%
    13:00 +1°C° 0 mm 4 mps 759 mmHg 72%
    14:00 +1°C° 0 mm 4 mps 759 mmHg 74%
    15:00 +2°C° 0 mm 3 mps 759 mmHg 76%
    16:00 +1°C° 0 mm 3 mps 758 mmHg 78%
    17:00 +1°C° 0.1 mm 3 mps 758 mmHg 79%
    18:00 +1°C° 0.1 mm 3 mps 758 mmHg 81%
    19:00 +1°C° 0.1 mm 3 mps 758 mmHg 83%
    20:00 +1°C° 0.1 mm 3 mps 758 mmHg 84%
    21:00 +1°C° 0.1 mm 3 mps 758 mmHg 86%
    22:00 +1°C° 0.1 mm 3 mps 758 mmHg 87%
    23:00 +1°C° 0.2 mm 3 mps 759 mmHg 88%

    Tomorrow, 20 December, Thursday

    Time Temperature Precipitation Wind Pressure Humidity
    00:00 +2°C° 0.2 mm 2 mps 759 mmHg 89%
    01:00 +2°C° 0.2 mm 2 mps 759 mmHg 90%
    02:00 +2°C° 0.1 mm 2 mps 758 mmHg 91%
    03:00 +2°C° 0.1 mm 2 mps 758 mmHg 92%
    04:00 +2°C° 0.1 mm 2 mps 758 mmHg 93%
    05:00 +2°C° 0.2 mm 2 mps 758 mmHg 93%
    06:00 +2°C° 0.2 mm 2 mps 758 mmHg 93%
    07:00 +2°C° 0.2 mm 2 mps 758 mmHg 94%
    08:00 +2°C° 0.1 mm 2 mps 758 mmHg 94%
    09:00 +3°C° 0.1 mm 2 mps 758 mmHg 93%
    10:00 +3°C° 0.1 mm 2 mps 758 mmHg 93%
    11:00 +3°C° 0 mm 3 mps 758 mmHg 91%
    12:00 +3°C° 0 mm 3 mps 758 mmHg 89%
    13:00 +4°C° 0 mm 3 mps 758 mmHg 88%
    14:00 +4°C° 0 mm 3 mps 758 mmHg 89%
    15:00 +4°C° 0 mm 2 mps 758 mmHg 90%
    16:00 +4°C° 0 mm 2 mps 758 mmHg 91%
    17:00 +4°C° 0 mm 2 mps 758 mmHg 91%
    18:00 +3°C° 0 mm 3 mps 758 mmHg 90%
    19:00 +3°C° 0 mm 3 mps 758 mmHg 90%
    20:00 +3°C° 0 mm 3 mps 758 mmHg 90%
    21:00 +3°C° 0 mm 3 mps 758 mmHg 90%
    22:00 +3°C° 0 mm 3 mps 758 mmHg 90%
    23:00 +3°C° 0.1 mm 3 mps 758 mmHg 90%

    Day after tomorrow, 21 December, Friday

    Time Temperature Precipitation Wind Pressure Humidity
    00:00 +3°C° 0.1 mm 3 mps 758 mmHg 89%
    01:00 +3°C° 0.1 mm 4 mps 758 mmHg 89%
    02:00 +3°C° 0.4 mm 4 mps 757 mmHg 89%
    03:00 +4°C° 0.4 mm 4 mps 757 mmHg 88%
    04:00 +4°C° 0.4 mm 4 mps 757 mmHg 88%
    05:00 +4°C° 0.1 mm 4 mps 756 mmHg 88%
    06:00 +4°C° 0.1 mm 4 mps 756 mmHg 89%
    07:00 +4°C° 0.1 mm 3 mps 756 mmHg 89%
    08:00 +4°C° 0 mm 3 mps 756 mmHg 89%
    09:00 +4°C° 0 mm 3 mps 755 mmHg 88%
    10:00 +4°C° 0 mm 3 mps 755 mmHg 87%
    11:00 +4°C° 0.1 mm 3 mps 754 mmHg 87%
    12:00 +5°C° 0.1 mm 4 mps 753 mmHg 87%
    13:00 +5°C° 0.1 mm 4 mps 752 mmHg 87%
    14:00 +5°C° 0.5 mm 4 mps 751 mmHg 88%
    15:00 +5°C° 0.5 mm 5 mps 750 mmHg 88%
    16:00 +5°C° 0.5 mm 5 mps 749 mmHg 89%
    17:00 +6°C° 1.2 mm 5 mps 749 mmHg 89%
    18:00 +7°C° 1.2 mm 5 mps 748 mmHg 90%
    19:00 +8°C° 1.2 mm 5 mps 748 mmHg 90%
    20:00 +8°C° 0.1 mm 6 mps 748 mmHg 85%
    21:00 +8°C° 0.1 mm 6 mps 748 mmHg 81%
    22:00 +8°C° 0.1 mm 7 mps 749 mmHg 76%
    23:00 +6°C° 0.1 mm 7 mps 749 mmHg 77%

    22 December, Saturday

    Time Temperature Precipitation Wind Pressure Humidity
    00:00 +6°C° 0.1 mm 7 mps 750 mmHg 77%
    01:00 +7°C° 0.1 mm 6 mps 750 mmHg 77%
    02:00 +5°C° 0.1 mm 6 mps 751 mmHg 79%
    03:00 +5°C° 0.1 mm 6 mps 751 mmHg 80%
    04:00 +6°C° 0.1 mm 5 mps 751 mmHg 81%
    05:00 +6°C° 0.1 mm 5 mps 751 mmHg 81%
    06:00 +7°C° 0.1 mm 5 mps 751 mmHg 82%
    07:00 +7°C° 0.1 mm 5 mps 751 mmHg 82%
    08:00 +7°C° 0.1 mm 6 mps 750 mmHg 81%
    09:00 +7°C° 0.1 mm 6 mps 750 mmHg 80%
    10:00 +7°C° 0.1 mm 6 mps 750 mmHg 79%
    11:00 +7°C° 0.4 mm 6 mps 749 mmHg 80%
    12:00 +7°C° 0.4 mm 6 mps 749 mmHg 81%
    13:00 +8°C° 0.4 mm 6 mps 748 mmHg 82%
    14:00 +8°C° 0.4 mm 6 mps 749 mmHg 80%
    15:00 +8°C° 0.4 mm 7 mps 749 mmHg 78%
    16:00 +8°C° 0.4 mm 7 mps 749 mmHg 76%
    17:00 +6°C° 0.1 mm 7 mps 750 mmHg 77%
    18:00 +6°C° 0.1 mm 7 mps 751 mmHg 77%
    19:00 +5°C° 0.1 mm 6 mps 751 mmHg 78%
    20:00 +5°C° 0 mm 7 mps 752 mmHg 78%
    21:00 +5°C° 0 mm 7 mps 753 mmHg 78%
    22:00 +5°C° 0 mm 7 mps 753 mmHg 78%
    23:00 +5°C° 0 mm 7 mps 754 mmHg 78%

    23 December, Sunday

    Time Temperature Precipitation Wind Pressure Humidity
    00:00 +5°C° 0 mm 7 mps 754 mmHg 78%
    01:00 +5°C° 0 mm 7 mps 755 mmHg 78%
    02:00 +5°C° 0 mm 7 mps 755 mmHg 79%
    03:00 +5°C° 0 mm 6 mps 755 mmHg 80%
    04:00 +5°C° 0 mm 6 mps 756 mmHg 81%
    05:00 +5°C° 0 mm 6 mps 756 mmHg 81%
    06:00 +4°C° 0 mm 6 mps 756 mmHg 81%
    07:00 +4°C° 0 mm 6 mps 756 mmHg 81%
    08:00 +4°C° 0.1 mm 6 mps 757 mmHg 80%
    09:00 +5°C° 0.1 mm 6 mps 757 mmHg 80%
    10:00 +5°C° 0.1 mm 7 mps 757 mmHg 79%
    11:00 +5°C° 0 mm 7 mps 757 mmHg 78%
    12:00 +5°C° 0 mm 7 mps 757 mmHg 77%
    13:00 +5°C° 0 mm 7 mps 757 mmHg 77%
    14:00 +5°C° 0.1 mm 7 mps 757 mmHg 76%
    15:00 +5°C° 0.1 mm 6 mps 758 mmHg 75%
    16:00 +5°C° 0.1 mm 6 mps 758 mmHg 74%
    17:00 +5°C° 0 mm 6 mps 758 mmHg 76%
    18:00 +4°C° 0 mm 6 mps 759 mmHg 77%
    19:00 +4°C° 0 mm 6 mps 759 mmHg 79%
    20:00 +5°C° 0 mm 5 mps 760 mmHg 80%
    21:00 +5°C° 0 mm 5 mps 760 mmHg 82%
    22:00 +5°C° 0 mm 4 mps 760 mmHg 84%
    23:00 +4°C° 0 mm 4 mps 761 mmHg 86%

    24 December, Monday

    Time Temperature Precipitation Wind Pressure Humidity
    00:00 +4°C° 0 mm 3 mps 761 mmHg 88%
    01:00 +4°C° 0 mm 3 mps 761 mmHg 91%
    02:00 +4°C° 0 mm 3 mps 761 mmHg 91%
    03:00 +4°C° 0 mm 3 mps 761 mmHg 91%
    04:00 +4°C° 0 mm 3 mps 761 mmHg 91%
    05:00 +4°C° 0 mm 3 mps 761 mmHg 92%
    06:00 +4°C° 0 mm 3 mps 761 mmHg 92%
    07:00 +4°C° 0 mm 3 mps 761 mmHg 93%
    08:00 +4°C° 0 mm 3 mps 761 mmHg 92%
    09:00 +4°C° 0 mm 3 mps 761 mmHg 90%
    10:00 +4°C° 0 mm 3 mps 762 mmHg 89%
    11:00 +5°C° 0 mm 3 mps 762 mmHg 86%
    12:00 +5°C° 0 mm 3 mps 761 mmHg 83%
    13:00 +5°C° 0 mm 4 mps 761 mmHg 81%
    14:00 +5°C° 0 mm 3 mps 762 mmHg 82%
    15:00 +5°C° 0 mm 3 mps 762 mmHg 84%
    16:00 +4°C° 0 mm 3 mps 762 mmHg 86%
    17:00 +4°C° 0 mm 3 mps 762 mmHg 87%
    18:00 +4°C° 0 mm 3 mps 762 mmHg 88%
    19:00 +4°C° 0 mm 3 mps 762 mmHg 89%
    20:00 +4°C° 0 mm 3 mps 762 mmHg 89%
    21:00 +4°C° 0 mm 3 mps 762 mmHg 88%
    22:00 +4°C° 0 mm 3 mps 762 mmHg 88%
    23:00 +4°C° 0 mm 3 mps 762 mmHg 89%
    Show more